Wetbulb
27.12 26.64 26.70 26.39 26.17 26.29 25.87 25.57 25.44 25.50 25.09 24.84 24.45 24.26 23.98 23.73 23.88 23.46 23.25 23.95 23.04 23.59 24.35 24.30 24.16 25.36 25.38 26.12 26.69 26.77 26.45 26.89 24.99 27.66 30.65 32.03 32.03 32.92 34.41 36.16 36.70 36.30 37.68
26.67 26.49 26.75 26.43 26.16 25.34 24.88 24.92 25.04 23.93 24.00 23.55 22.73 22.36 22.13 21.97 22.08 21.60 21.29 21.99 22.00 22.04 22.62 22.78 22.85 24.15 23.59 24.56 24.89 24.65 25.31 26.33 25.36 23.57 26.87 28.49 29.58 31.64 32.69 33.01 33.54 34.49 35.26
26.41 26.39 26.01 25.95 25.23 24.59 24.21 23.99 23.33 22.37 21.68 21.08 20.77 20.07 19.93 19.97 20.01 20.59 21.31 21.03 20.89 20.75 20.93 20.73 20.88 21.34 21.42 22.81 23.02 23.43 24.52 24.87 25.55 24.47 23.52 27.33 28.87 30.39 30.48 31.72 32.28 33.26 33.83
26.15 25.95 25.64 25.16 24.58 23.83 23.30 22.01 20.97 20.60 19.74 19.23 19.13 18.76 18.61 18.72 19.45 20.58 20.54 20.20 20.35 20.57 20.45 20.23 19.65 19.24 19.11 19.87 20.50 21.45 23.03 23.70 24.25 23.62 23.43 23.79 25.81 28.38 29.69 28.94 28.99 32.00 31.52
25.83 25.50 25.34 25.20 23.44 22.41 20.59 19.28 19.14 18.63 18.10 17.62 17.41 16.57 16.88 17.33 20.15 19.89 20.31 19.99 19.12 18.77 18.84 18.74 19.07 19.48 20.53 20.75 20.46 20.52 20.93 20.56 21.05 21.80 22.22 23.03 23.47 23.70 25.07 28.65 28.39 30.25 31.59
25.15 24.86 24.33 22.75 21.23 19.51 18.50 17.75 17.26 16.26 15.50 15.17 14.64 13.96 13.55 16.12 18.50 21.09 21.38 19.16 18.25 16.98 16.44 17.31 17.57 17.43 18.51 20.14 20.82 21.55 21.47 18.85 17.49 18.70 19.61 19.47 21.00 23.09 25.06 25.22 25.51 24.78 24.15
22.61 21.35 20.47 19.99 18.86 17.29 16.20 15.48 14.63 13.43 13.24 12.50 12.44 12.38 11.89 12.69 17.41 20.44 20.46 18.35 17.33 16.29 15.43 15.50 15.74 17.07 16.92 16.58 18.04 19.87 20.12 20.87 22.10 20.31 18.42 18.48 18.82 20.21 21.24 20.48 21.07 21.57 21.69
21.58 19.33 17.79 17.21 15.61 14.35 13.22 12.35 12.04 11.84 10.94 10.54 10.42 10.32 10.81 11.71 16.91 18.81 19.31 17.54 15.76 15.54 15.63 15.37 15.03 15.30 16.35 17.05 17.11 17.72 18.42 19.27 19.79 20.73 20.52 20.75 21.46 22.57 22.50 22.38 22.05 22.33 23.70
20.30 18.89 17.10 15.76 12.89 12.26 9.65 9.63 9.94 9.45 8.93 8.09 10.54 8.88 7.53 8.08 14.14 17.74 17.88 16.08 14.69 14.41 15.64 16.04 15.93 15.88 18.02 20.59 19.55 18.90 19.20 19.46 22.36 23.80 24.32 24.93 25.47 25.91 25.43 23.20 20.35 19.36 17.64
19.53 18.66 16.17 13.43 9.30 8.28 9.73 8.19 8.45 6.97 8.77 8.77 8.13 7.61 6.50 6.13 11.78 16.02 17.24 16.68 14.30 15.08 16.06 16.37 18.78 19.35 21.58 22.64 20.02 18.91 17.03 18.13 19.36 19.50 20.29 21.69 23.04 22.76 24.25 23.04 21.41 17.65 17.47
16.75 14.87 12.49 11.42 8.46 8.03 6.49 7.04 5.15 3.94 5.84 2.33 3.98 4.75 4.88 6.23 7.16 14.69 17.88 17.35 16.55 16.41 17.21 16.91 17.87 20.90 22.33 23.49 24.36 21.47 20.30 22.12 22.52 21.94 21.58 21.80 21.85 21.77 21.68 22.36 22.49 20.96 18.00
13.11 11.14 9.14 5.89 8.42 6.64 0.90 2.42 1.18 0.85 0.23 -0.17 0.09 2.34 5.91 7.45 11.05 14.73 18.16 20.22 20.62 17.71 17.11 18.23 18.55 22.33 24.34 23.49 21.97 22.15 22.78 22.50 20.91 19.71 18.89 18.33 18.49 18.96 20.14 20.93 21.44 21.67 22.10
9.04 5.77 3.49 3.30 4.88 4.21 -0.23 1.46 3.07 0.91 -0.01 0.72 2.79 3.32 4.99 8.47 9.62 15.10 17.78 19.16 20.47 19.05 19.22 20.41 21.25 19.54 19.27 16.84 17.11 18.94 17.60 15.47 15.09 14.03 14.18 15.35 17.44 19.26 20.29 20.32 20.95 20.79 20.58
4.13 4.08 3.33 2.18 3.28 2.30 5.64 4.48 1.98 1.46 1.12 1.43 1.38 2.30 4.38 6.61 9.99 13.05 13.56 16.18 19.54 19.54 17.90 13.39 13.36 12.10 12.63 12.72 10.25 11.77 11.63 12.16 11.54 10.79 11.54 14.04 15.99 15.93 15.67 17.18 16.11 16.80 15.89
3.48 4.36 3.99 2.50 2.06 3.96 4.32 4.83 4.66 4.56 3.24 -1.89 0.41 3.19 4.33 9.30 10.88 17.54 19.27 18.40 18.92 17.35 9.30 4.84 3.24 3.35 3.81 5.12 6.00 6.68 8.03 8.62 8.22 9.34 9.72 10.40 11.80 13.36 14.31 15.87 15.30 14.84 13.25
3.71 3.47 3.23 3.66 3.62 3.90 3.26 3.04 8.41 12.33 14.46 16.40 17.88 17.31 14.47 16.73 17.75 19.17 19.60 20.39 19.34 16.39 3.78 -1.49 -0.50 0.87 1.16 2.24 2.77 3.62 5.31 5.74 7.21 7.90 8.42 9.39 10.58 11.80 12.89 15.01 15.53 14.38 13.13
1.36 3.10 3.20 3.66 2.82 2.00 1.06 0.13 -1.22 2.55 8.55 11.20 13.90 15.71 15.73 15.67 17.47 17.57 18.67 17.85 12.82 9.41 -1.85 -1.87 -1.54 -0.30 0.61 1.94 2.48 3.06 3.13 5.08 6.52 6.94 7.88 8.72 10.14 11.98 13.19 13.31 13.68 14.00 13.89
-4.08 0.86 0.60 1.26 0.47 -0.59 -0.88 -1.27 -2.60 -4.28 -5.48 -3.05 3.22 7.87 11.10 14.10 14.34 16.11 15.05 8.74 -2.48 -1.67 -4.06 -3.24 -2.13 -0.54 0.78 1.53 2.40 2.75 3.47 4.46 5.52 6.91 7.93 8.88 10.41 11.79 12.87 12.71 13.25 13.15 14.09
-4.70 -3.24 -2.57 -3.12 -3.21 -2.46 -2.13 -2.58 -3.97 -4.76 -4.93 -5.79 -4.25 0.25 3.26 8.01 11.49 11.27 9.09 -3.84 -6.95 -4.88 -3.33 -2.69 -1.17 -0.47 0.65 1.72 2.43 2.82 3.43 3.93 4.98 6.28 7.85 8.43 9.66 10.68 11.25 13.69 14.13 13.81 14.39
-9.08 -1.93 -2.58 -5.15 -5.31 -5.47 -4.51 -5.24 -4.85 -5.88 -6.25 -6.82 -5.87 -4.81 -4.91 -4.67 -4.74 -5.90 -7.01 -8.07 -7.92 -6.69 -4.84 -4.37 -2.85 -1.44 -0.51 0.63 1.79 2.53 3.26 3.73 5.00 6.93 8.21 8.84 9.45 10.10 10.39 11.52 13.36 14.89 17.43
-10.96 -10.49 -6.92 -10.24 -11.78 -10.31 -8.21 -7.83 -6.52 -8.01 -8.25 -8.08 -7.13 -3.01 6.28 4.91 -1.95 -6.88 -8.30 -7.97 -8.51 -7.69 -6.25 -5.62 -4.57 -3.50 -2.25 -0.70 0.40 1.49 1.53 2.95 4.84 6.78 8.90 8.90 8.47 8.18 10.07 11.70 12.40 14.24 16.53
-15.04 -13.25 -16.55 -16.13 -11.56 -10.17 -9.88 -8.34 -8.29 -9.62 -8.49 -8.28 -5.91 -3.81 6.23 -1.38 -4.58 -7.29 -7.47 -8.42 -8.19 -8.27 -7.50 -6.87 -6.14 -4.86 -3.93 -2.88 -1.65 -0.42 -0.28 1.39 4.02 5.68 8.82 7.89 7.73 8.42 9.53 10.48 11.34 12.56 14.37
-13.06 -16.50 -16.69 -15.95 -11.73 -10.42 -10.43 -10.87 -10.99 -11.36 -10.70 -10.14 -8.07 -6.19 -5.75 -6.89 -8.87 -9.43 -9.26 -9.51 -9.39 -8.95 -7.24 -8.46 -7.31 -6.80 -4.55 -3.82 -2.45 -2.00 -1.35 0.01 3.98 4.75 8.54 7.50 7.10 7.68 8.64 9.29 10.45 11.25 12.69
-17.10 -15.36 -13.27 -13.93 -14.88 -14.21 -12.16 -10.17 -11.19 -10.39 -10.83 -9.38 -10.14 -9.07 -8.28 -8.57 -11.57 -12.09 -11.53 -10.57 -10.39 -9.78 -9.38 -9.38 -8.40 -8.30 -7.62 -6.36 -4.34 -3.11 -2.33 -0.30 3.79 6.83 9.18 7.41 6.79 7.50 7.91 7.95 9.22 10.41 11.94
-21.20 -18.43 -15.11 -12.55 -15.02 -14.27 -14.33 -12.53 -9.63 -10.59 -9.97 -8.30 -7.25 -7.63 -8.53 -11.40 -12.41 -13.12 -13.19 -13.07 -12.98 -11.37 -10.56 -10.18 -8.93 -8.54 -9.04 -8.29 -7.68 -7.13 -4.72 -0.55 4.70 10.66 7.00 6.29 6.17 5.14 6.13 6.85 7.30 8.98 9.23
-15.00 -13.19 -12.00 -7.21 -8.61 -8.47 -8.71 -7.80 -6.65 -5.95 -5.99 -5.83 -6.57 -8.14 -10.74 -12.59 -12.94 -13.44 -14.21 -14.96 -13.52 -12.01 -12.40 -10.84 -10.07 -10.90 -10.59 -7.88 -6.34 -2.71 1.48 7.39 12.48 8.47 5.11 4.20 3.60 4.53 5.35 4.84 4.20 6.01 6.56
MSLP
1031.16 1031.50 1031.55 1031.79 1032.02 1031.96 1032.10 1032.37 1032.54 1032.85 1032.80 1032.69 1032.66 1032.60 1032.57 1032.45 1032.36 1032.20 1031.95 1031.57 1031.35 1031.13 1030.84 1030.36 1030.04 1029.77 1029.31 1028.85 1028.35 1027.98 1027.36 1026.81 1025.36 1023.82 1023.44 1022.79 1022.32 1021.94 1021.47 1021.07 1020.51 1020.06 1019.52
1030.74 1031.06 1031.34 1031.64 1031.93 1032.06 1032.23 1032.44 1032.58 1032.65 1032.83 1032.90 1032.92 1032.89 1032.84 1032.63 1032.51 1032.19 1031.82 1031.56 1031.28 1030.92 1030.60 1030.31 1029.89 1029.42 1029.04 1028.64 1028.08 1027.51 1027.02 1026.51 1025.77 1023.88 1023.36 1022.71 1022.04 1021.74 1021.11 1020.72 1020.07 1019.53 1018.98
1030.54 1030.73 1030.93 1031.24 1031.60 1031.77 1031.99 1032.12 1032.41 1032.70 1032.98 1033.16 1032.99 1032.87 1032.73 1032.64 1032.44 1032.06 1031.73 1031.50 1031.22 1030.95 1030.69 1030.38 1029.92 1029.52 1028.90 1028.31 1027.81 1027.17 1026.61 1025.86 1025.34 1024.34 1022.70 1022.60 1021.85 1021.35 1020.51 1019.93 1019.36 1018.85 1018.34
1030.08 1030.36 1030.63 1030.96 1031.27 1031.48 1031.83 1032.19 1032.42 1032.54 1032.64 1032.92 1032.85 1032.84 1032.72 1032.54 1032.20 1031.68 1031.46 1031.22 1030.93 1030.63 1030.42 1030.14 1029.79 1029.36 1028.80 1028.28 1027.71 1027.05 1026.26 1025.52 1024.90 1024.05 1022.75 1022.03 1021.62 1020.94 1020.23 1019.32 1018.36 1018.02 1017.49
1029.57 1029.96 1030.20 1030.64 1030.99 1031.55 1031.88 1032.24 1032.40 1032.46 1032.61 1032.86 1032.76 1032.82 1032.66 1032.40 1031.75 1031.56 1031.22 1030.88 1030.64 1030.24 1030.01 1029.80 1029.40 1028.97 1028.60 1028.07 1027.27 1026.47 1026.00 1025.29 1024.49 1023.57 1022.44 1021.52 1020.77 1020.41 1019.68 1018.66 1017.90 1017.43 1016.66
1029.06 1029.24 1029.75 1030.39 1030.89 1031.46 1031.95 1032.13 1032.35 1032.44 1032.57 1032.64 1032.68 1032.74 1032.62 1032.26 1031.93 1031.35 1030.91 1030.58 1030.39 1030.08 1029.53 1029.21 1028.96 1028.54 1027.87 1027.38 1026.89 1026.26 1025.73 1024.90 1024.20 1023.55 1022.56 1021.66 1020.78 1020.46 1019.84 1019.23 1018.48 1017.56 1016.08
1028.54 1029.08 1029.56 1030.23 1030.84 1031.35 1031.87 1032.16 1032.13 1032.02 1032.17 1032.34 1032.49 1032.53 1032.44 1032.32 1031.64 1030.98 1030.65 1030.37 1030.02 1029.71 1029.39 1028.90 1028.30 1027.84 1027.44 1026.85 1026.29 1025.58 1025.01 1024.64 1023.76 1022.96 1022.05 1021.55 1020.71 1020.64 1020.14 1019.37 1018.92 1018.05 1016.72
1028.20 1028.86 1029.58 1030.24 1030.89 1031.42 1031.81 1031.88 1031.84 1031.81 1032.01 1032.24 1032.38 1032.42 1032.28 1032.00 1031.30 1030.76 1030.23 1029.79 1029.58 1029.24 1028.93 1028.51 1027.81 1027.07 1026.64 1026.01 1025.18 1024.39 1023.76 1023.30 1022.86 1022.23 1021.54 1020.80 1020.44 1020.02 1019.68 1019.06 1018.30 1017.36 1016.40
1027.77 1028.50 1029.29 1029.94 1030.77 1031.36 1031.56 1031.66 1031.63 1031.79 1032.05 1032.15 1032.16 1032.16 1032.08 1031.82 1031.16 1030.33 1029.76 1029.33 1028.88 1028.55 1028.19 1027.69 1027.01 1026.23 1025.81 1024.85 1023.76 1022.95 1022.34 1021.84 1021.31 1020.69 1020.05 1019.37 1018.88 1018.43 1018.10 1017.80 1017.38 1016.93 1015.80
1027.20 1027.85 1028.90 1029.77 1030.56 1031.08 1031.17 1031.40 1031.34 1031.62 1031.67 1031.84 1031.86 1031.84 1031.76 1031.46 1030.85 1030.09 1029.40 1028.76 1028.19 1027.59 1027.08 1026.54 1026.02 1025.05 1024.03 1023.12 1022.54 1021.98 1021.00 1020.23 1019.69 1019.10 1018.62 1018.20 1017.97 1017.72 1017.45 1017.19 1016.80 1016.19 1015.42
1026.82 1027.75 1028.80 1029.60 1030.29 1030.67 1030.98 1031.09 1031.16 1031.36 1031.43 1031.69 1031.48 1031.34 1031.26 1030.99 1030.51 1029.64 1028.80 1028.01 1027.38 1026.58 1025.95 1025.36 1024.73 1023.92 1022.81 1021.84 1021.08 1020.24 1019.41 1018.59 1017.91 1017.46 1017.21 1017.01 1016.83 1016.57 1016.23 1015.80 1015.63 1015.26 1014.36
1026.64 1027.74 1028.69 1029.47 1030.02 1030.41 1030.71 1030.86 1030.94 1031.07 1031.25 1031.25 1031.16 1030.90 1030.54 1030.14 1029.60 1028.90 1028.02 1027.07 1026.39 1025.83 1025.10 1024.39 1023.63 1022.68 1021.65 1020.97 1020.43 1019.92 1019.11 1018.23 1017.63 1017.09 1016.58 1016.09 1015.68 1015.22 1014.78 1014.47 1014.24 1013.90 1013.38
1026.84 1027.89 1028.72 1029.33 1029.68 1030.00 1030.35 1030.50 1030.53 1030.58 1030.68 1030.75 1030.67 1030.20 1029.64 1029.24 1028.99 1028.29 1027.30 1026.71 1025.82 1024.91 1024.31 1023.48 1022.99 1022.74 1022.05 1021.46 1020.78 1019.94 1019.22 1018.62 1017.92 1017.25 1016.47 1015.72 1015.17 1014.60 1014.05 1013.48 1013.21 1012.97 1012.40
1026.82 1027.73 1028.45 1029.01 1029.31 1029.55 1029.67 1029.77 1029.85 1029.88 1030.12 1030.20 1030.01 1029.68 1029.12 1028.67 1028.19 1027.48 1026.73 1025.99 1025.14 1024.37 1024.16 1024.18 1023.87 1023.41 1022.62 1021.96 1021.05 1020.21 1019.62 1018.96 1018.33 1017.54 1016.56 1015.62 1014.91 1014.24 1013.51 1013.01 1012.50 1012.10 1011.49
1026.70 1027.37 1028.02 1028.61 1028.92 1028.94 1029.01 1029.02 1028.90 1029.08 1029.22 1029.27 1028.95 1028.61 1028.27 1027.56 1027.20 1026.13 1025.31 1024.83 1024.37 1024.20 1024.30 1024.44 1024.17 1023.57 1022.90 1022.06 1021.23 1020.49 1019.64 1018.92 1018.16 1017.38 1016.52 1015.55 1014.61 1013.68 1012.60 1012.16 1011.68 1011.14 1010.52
1026.65 1027.28 1027.68 1028.02 1028.30 1028.32 1028.51 1028.54 1028.34 1027.92 1027.58 1027.28 1026.88 1026.61 1026.69 1026.44 1026.06 1025.34 1024.81 1024.26 1024.09 1024.35 1024.74 1025.10 1024.56 1024.04 1023.33 1022.41 1021.52 1020.49 1019.67 1018.86 1018.04 1017.21 1016.21 1015.19 1014.01 1012.91 1011.81 1010.95 1010.63 1010.09 1009.22
1026.44 1026.95 1027.37 1027.57 1027.79 1027.96 1028.21 1028.41 1028.34 1027.89 1027.70 1027.37 1026.89 1026.44 1026.27 1026.20 1025.49 1025.13 1024.49 1024.22 1025.05 1025.00 1025.57 1025.25 1024.80 1024.12 1023.24 1022.39 1021.59 1020.71 1019.63 1018.68 1017.90 1016.84 1015.75 1014.59 1013.43 1012.09 1011.02 1010.10 1009.45 1008.82 1007.71
1026.60 1026.65 1026.85 1027.07 1027.45 1027.72 1027.86 1027.98 1028.11 1028.24 1028.30 1027.95 1027.67 1027.30 1026.78 1025.89 1025.65 1024.90 1024.75 1025.36 1025.94 1025.61 1025.63 1025.23 1024.67 1023.98 1023.18 1022.33 1021.39 1020.52 1019.46 1018.39 1017.32 1016.24 1015.13 1014.05 1012.93 1011.81 1010.30 1009.37 1008.58 1007.74 1006.71
1026.70 1027.00 1027.15 1027.37 1027.65 1027.73 1027.85 1027.96 1028.03 1028.05 1028.06 1028.08 1027.92 1027.39 1027.26 1026.50 1025.69 1025.30 1025.60 1026.21 1026.28 1025.81 1025.46 1024.98 1024.43 1023.70 1022.97 1022.13 1021.12 1020.16 1019.25 1018.05 1016.94 1015.75 1014.55 1013.51 1012.41 1011.36 1010.01 1008.77 1007.64 1006.65 1005.75
1026.93 1026.90 1027.03 1027.29 1027.45 1027.64 1027.76 1027.87 1027.94 1028.00 1027.95 1027.77 1027.64 1027.32 1027.18 1026.99 1026.32 1026.18 1026.19 1026.23 1026.04 1025.62 1025.22 1024.76 1024.06 1023.34 1022.65 1021.76 1020.72 1019.72 1018.62 1017.52 1016.33 1015.11 1013.93 1012.90 1011.85 1010.88 1009.69 1008.48 1007.20 1005.81 1004.36
1026.90 1027.06 1027.18 1027.46 1027.59 1027.47 1027.55 1027.64 1027.69 1027.77 1027.68 1027.38 1027.01 1026.68 1026.24 1025.60 1025.91 1025.93 1025.91 1025.83 1025.70 1025.40 1024.99 1024.51 1023.73 1022.96 1022.25 1021.30 1020.37 1019.40 1018.39 1017.17 1015.98 1014.69 1013.38 1012.36 1011.48 1010.34 1009.25 1008.09 1006.84 1005.48 1004.00
1026.67 1026.89 1027.15 1027.31 1027.16 1027.23 1027.14 1027.20 1027.29 1027.33 1027.14 1026.92 1026.48 1026.16 1025.64 1025.69 1025.61 1025.64 1025.41 1025.22 1024.95 1024.78 1024.41 1023.92 1023.14 1022.44 1021.76 1020.96 1020.10 1019.16 1018.09 1016.82 1015.51 1014.32 1012.93 1012.04 1011.11 1010.03 1008.91 1007.73 1006.48 1005.21 1003.90
1026.71 1026.88 1026.95 1026.99 1026.88 1026.79 1026.74 1026.76 1026.67 1026.60 1026.48 1026.33 1026.20 1025.86 1025.70 1025.54 1025.43 1025.25 1024.88 1024.52 1024.23 1024.01 1023.49 1023.23 1022.59 1021.82 1021.07 1020.43 1019.75 1019.00 1017.90 1016.54 1015.29 1014.24 1012.69 1011.70 1010.76 1009.76 1008.73 1007.61 1006.46 1005.26 1004.12
1026.30 1026.55 1026.57 1026.60 1026.53 1026.36 1026.22 1026.07 1025.91 1025.76 1025.68 1025.61 1025.54 1025.44 1025.34 1025.16 1025.12 1024.86 1024.43 1023.98 1023.69 1023.24 1022.91 1022.50 1021.98 1021.39 1020.61 1019.81 1018.92 1018.04 1017.13 1015.93 1014.97 1013.69 1012.50 1011.59 1010.61 1009.63 1008.71 1007.76 1006.74 1005.75 1004.76
1025.90 1026.14 1026.17 1026.00 1025.85 1025.65 1025.45 1025.27 1025.12 1024.92 1024.77 1024.71 1024.63 1024.64 1024.60 1024.66 1024.64 1024.27 1023.91 1023.63 1023.26 1022.71 1022.11 1021.61 1021.09 1020.50 1019.87 1019.06 1018.25 1017.37 1016.29 1014.99 1014.05 1012.89 1012.24 1011.55 1010.73 1009.82 1008.95 1008.13 1007.24 1006.32 1005.58
1025.27 1025.36 1025.29 1025.04 1024.89 1024.73 1024.55 1024.42 1024.22 1024.07 1023.97 1023.85 1023.88 1023.94 1024.01 1024.08 1023.88 1023.59 1023.23 1022.94 1022.51 1021.94 1021.47 1020.82 1020.18 1019.67 1019.03 1018.19 1017.28 1016.43 1015.45 1014.33 1012.94 1012.43 1012.07 1011.61 1010.96 1010.16 1009.33 1008.62 1007.86 1007.16 1006.51
Wind_Speed
7 6 7 7 6 6 6 5 5 5 6 7 7 7 8 8 8 8 8 8 10 10 9 10 12 11 9 9 9 9 9 9 13 11 11 12 14 12 11 11 10 10 10
8 6 6 6 5 5 5 5 5 5 5 4 5 5 6 7 8 8 9 8 10 12 12 13 13 10 13 12 9 12 11 11 11 18 12 12 15 13 12 13 11 9 10
7 7 6 6 5 5 5 5 4 4 3 3 4 5 6 7 8 7 7 10 10 11 11 12 13 14 13 11 12 12 11 10 11 12 15 10 12 12 12 12 10 11 10
8 7 7 6 6 5 4 4 3 3 4 4 4 5 6 7 8 8 10 10 11 11 12 12 13 14 15 14 13 13 12 12 11 12 13 12 10 11 11 11 11 9 9
8 8 7 6 6 5 4 3 3 3 3 3 4 4 6 7 6 10 10 11 12 13 13 13 13 15 22 19 12 13 13 12 11 12 12 12 11 10 12 9 11 10 10
9 9 7 6 6 5 4 3 3 3 1 2 3 4 5 5 12 14 14 11 13 13 13 13 14 16 17 21 23 24 21 14 14 12 12 14 16 13 11 10 11 12 14
7 6 7 7 6 5 4 3 2 2 2 3 3 5 6 7 13 16 16 10 12 12 13 13 14 12 15 16 19 23 21 23 24 17 16 15 16 14 14 16 15 15 15
8 8 7 7 5 5 4 2 1 1 2 3 4 5 6 8 15 17 17 11 11 12 13 14 16 17 16 17 16 15 15 15 16 13 15 15 15 14 15 14 15 16 15
9 9 8 7 6 5 4 3 2 1 2 2 3 4 7 8 16 17 16 11 11 13 13 14 16 16 21 26 18 15 14 14 18 27 29 30 29 27 22 12 10 12 13
9 9 8 7 6 5 4 4 3 1 3 3 4 5 7 8 15 17 15 8 10 10 12 14 19 20 27 27 17 16 16 16 16 16 15 19 22 19 26 17 11 12 12
7 7 7 6 6 4 4 2 2 2 2 3 6 6 7 9 11 16 17 10 9 10 9 10 10 24 28 30 30 17 18 19 20 16 12 10 10 11 11 12 14 13 14
8 8 7 6 4 4 4 2 1 1 3 4 4 6 5 8 11 14 17 19 19 11 12 10 13 27 27 29 25 30 31 27 11 10 11 11 11 11 11 12 14 14 14
8 7 5 5 4 5 4 3 2 1 2 4 5 6 6 6 7 16 20 20 20 14 11 18 25 29 28 21 23 25 19 9 9 10 10 11 11 11 13 13 13 16 18
7 7 6 5 4 4 3 3 2 2 3 4 4 6 7 7 7 7 9 8 13 11 13 9 16 18 17 16 12 12 9 9 9 10 11 11 11 11 11 11 11 11 13
6 5 5 4 4 4 4 4 4 4 5 4 5 7 6 6 6 15 14 9 8 10 7 7 7 8 9 9 9 9 9 9 9 9 10 11 11 11 11 10 11 11 13
6 5 5 4 4 3 3 4 8 11 13 16 18 14 4 12 18 18 19 19 17 19 3 4 7 8 9 9 9 10 9 11 9 10 11 11 12 12 12 10 10 11 13
5 5 4 4 4 4 3 3 4 4 10 12 13 15 13 16 17 17 18 17 15 10 2 6 7 7 8 9 9 9 11 10 12 10 11 11 11 13 12 11 11 11 13
5 6 4 4 3 3 4 4 3 3 3 5 6 11 14 14 14 15 14 11 4 4 2 6 7 7 8 9 9 10 10 10 10 11 11 11 11 12 12 11 11 13 13
4 3 3 3 3 3 3 3 3 4 5 5 5 7 7 13 14 10 10 1 3 5 5 6 6 7 8 9 9 9 10 10 11 11 11 11 11 11 12 11 12 16 17
2 5 4 3 3 3 3 4 4 4 5 5 5 6 2 2 2 2 2 2 4 5 6 7 7 7 8 9 9 9 10 10 11 10 11 11 11 10 11 12 12 13 12
2 2 3 2 3 3 3 4 4 4 5 5 6 6 14 7 3 3 4 4 4 5 6 7 7 7 8 8 8 9 10 10 10 11 11 11 11 11 11 11 11 12 12
3 3 3 4 3 3 4 4 5 5 5 6 6 6 14 4 4 5 5 5 5 6 6 7 7 7 8 8 9 9 10 11 11 11 12 11 10 11 11 11 11 10 10
3 3 2 2 3 4 4 4 5 5 6 6 6 6 4 5 5 5 6 6 5 6 6 5 7 8 7 8 8 9 10 11 11 12 12 11 10 10 10 10 10 9 8
3 3 3 4 3 4 5 5 5 7 6 6 5 5 5 5 5 6 7 6 6 6 6 6 6 9 10 9 8 9 9 10 10 12 12 9 9 10 9 8 8 10 8
3 3 4 4 4 4 4 5 5 5 5 5 5 5 5 4 6 6 6 6 6 7 8 7 7 9 11 13 14 15 15 19 16 10 6 8 10 11 8 7 8 7 7
3 4 4 4 4 4 5 5 5 5 5 5 5 5 5 5 6 6 6 6 6 7 8 7 9 12 13 11 13 15 16 18 16 6 6 6 6 7 7 7 9 6 7
Wind_Direction
164 161 148 144 125 106 96 91 82 66 38 35 20 10 4 358 354 347 345 340 338 332 330 324 317 312 303 302 299 293 286 282 278 284 286 298 293 287 285 285 286 283 286
176 166 151 137 134 123 113 98 80 64 47 31 14 4 356 351 342 340 336 333 330 328 327 321 315 316 308 303 297 293 286 287 282 288 289 293 291 293 286 281 279 281 275
170 165 163 163 156 138 124 112 90 78 79 29 24 10 357 347 335 332 329 329 323 318 315 312 310 309 304 305 302 295 290 286 282 282 289 287 287 293 288 278 271 266 269
177 176 176 174 166 151 134 128 112 81 53 23 17 3 351 339 328 339 331 325 318 315 311 308 306 302 301 304 300 297 296 295 290 284 283 285 282 290 284 288 283 273 272
183 189 188 167 153 147 143 124 110 84 56 7 3 355 347 332 333 330 325 319 315 312 309 305 301 300 298 295 292 295 296 293 292 291 285 280 277 282 279 291 287 290 280
194 198 170 161 150 160 163 160 159 129 77 21 2 340 333 324 323 322 321 316 312 307 307 307 306 300 297 300 297 296 292 291 285 288 290 283 289 292 291 302 311 308 297
189 174 167 160 165 170 171 185 156 77 21 1 344 334 325 314 314 320 318 309 305 304 304 305 304 301 297 294 294 291 291 286 282 285 286 285 289 289 288 293 289 284 281
187 174 167 164 167 169 180 180 162 98 6 341 323 313 314 308 315 318 316 312 303 298 300 298 294 292 290 292 287 281 276 271 273 273 269 273 274 276 269 269 269 271 274
191 186 176 165 168 179 189 189 164 98 309 292 294 301 300 300 311 317 318 310 301 295 292 288 282 284 286 287 284 284 283 277 271 273 274 277 279 282 283 280 277 280 283
192 181 158 157 168 183 189 197 153 205 286 306 301 299 291 292 304 312 315 296 292 289 284 282 279 286 295 299 293 286 279 273 271 268 265 269 273 272 274 272 273 268 271
143 142 149 159 171 174 184 177 159 280 303 291 302 301 285 281 286 308 307 301 290 289 291 293 289 291 295 293 289 278 270 273 275 271 268 267 264 253 252 246 247 255 263
148 153 157 159 183 165 171 194 233 271 300 306 293 291 273 277 288 296 303 305 309 306 297 295 289 291 307 316 318 311 307 307 303 295 286 280 274 268 264 261 259 258 258
148 153 163 168 178 173 179 211 244 209 283 296 299 305 305 302 285 288 299 303 307 307 302 309 330 321 317 315 307 311 318 313 308 301 292 287 286 285 282 273 265 265 266
155 167 171 181 186 194 203 207 214 252 263 272 283 282 282 285 270 288 282 278 293 310 331 338 329 328 322 316 315 317 314 310 307 297 293 293 292 285 276 274 275 271 271
163 169 179 182 196 204 220 234 238 225 210 220 237 246 261 266 275 292 311 311 314 332 12 345 329 332 325 322 319 313 311 309 304 300 295 293 288 287 277 269 265 266 263
166 176 188 190 200 207 224 264 267 271 276 278 282 280 248 288 302 304 309 316 342 334 19 324 319 318 316 318 316 314 312 308 304 302 296 293 292 289 285 277 266 264 266
165 173 179 189 204 206 219 232 273 302 304 296 288 287 294 293 299 306 312 325 351 346 327 309 305 308 310 312 308 307 307 306 303 297 298 297 297 289 285 279 276 271 271
185 193 191 194 198 196 207 226 226 246 276 301 297 298 288 291 300 304 323 354 328 333 290 298 301 302 305 304 304 304 304 304 304 302 303 301 299 303 298 282 277 276 277
175 204 202 202 209 213 215 226 231 242 251 246 287 293 290 298 299 318 326 273 285 298 297 297 292 300 299 298 298 300 300 301 302 301 303 305 304 305 302 299 283 278 274
223 234 200 200 199 214 230 231 245 245 251 254 257 263 271 298 267 265 262 274 289 291 296 294 295 295 294 294 300 302 304 307 305 306 304 308 307 305 300 300 300 299 289
195 213 224 215 223 220 224 235 243 241 250 250 256 260 267 258 262 268 282 281 270 277 285 285 289 291 290 294 300 304 305 303 306 308 308 312 309 306 304 301 300 300 300
197 224 203 214 220 226 233 233 239 242 248 254 268 270 285 303 289 280 275 265 267 266 265 271 285 288 288 294 300 303 303 305 307 313 310 314 308 306 306 306 306 307 308
216 218 226 238 240 254 257 244 243 239 248 248 254 265 268 272 276 276 279 283 280 281 285 273 282 289 288 286 286 287 291 295 302 307 308 312 311 310 313 312 315 317 322
193 220 240 243 229 231 240 250 240 241 238 248 243 246 261 268 268 274 280 284 287 282 277 276 274 276 288 288 291 288 284 286 294 296 307 310 312 317 319 321 327 332 333
197 216 228 241 243 246 249 245 249 239 235 240 252 254 261 257 265 266 270 276 279 285 282 280 279 279 280 289 290 288 288 297 302 298 312 317 316 319 324 326 336 345 354
221 221 224 234 236 238 240 252 253 251 251 253 253 257 261 262 260 264 266 265 270 276 280 281 278 276 284 289 286 291 300 307 308 349 346 329 328 332 337 343 346 354 360